Showing default

LUCH (OLYMP) 2, 55841

Orbit data source: Space-Track

LUCH (OLYMP) 2, 55841 is a payload satellite owned by FSB (CIS) in GEO that was launched on Sun, 12 Mar 2023 UTC via a PROTON-M/BRIZ-M launch vehicle from the Tyuratam Missile And Space Complex (TTMTR). Payload-class satellites include a variety of spacecraft equipped with specific instruments for various scientific and technological missions. These include communications satellites like Starlink; space stations such as the ISS; scientific satellites like the Hubble; Earth observation satellites from companies like Planet Labs, Umbra, and HawkEye 360; GPS; miniature CubeSats for education and research; and military/defense satellites.

Not visible in the next 10 days
Identifier
55841, 2023-031A
Orbit
GEO
Country
Flag of CISCIS
Related business
Manufacturer
Resehetnev ISS
Mission
Operational Defense Com/Sigint
Bus & Motor
EKSPRESS-2000, Unknown motor
Mass
1,930 kg wet, ~1,800 kg dry
Launch date (UTC)
2023-03-12 (3 years ago)
Launch vehicle
PROTON-M/BRIZ-M
Launch site
Tyuratam Missile And Space Complex (TTMTR)
Object type
Payload
Rocket body
Debris
Shape & HBR
Cyl + 2 Pan + 2 Dish, 8.0 m
Radar Cross Section
40.926 m², Large (>1 m²)

Expand to show TLE details & history
Last TLE update: 2 days ago

TLE from 2 days ago
0 LUCH (OLYMP) 2
1 55841U 23031A   26171.19039038  .00000028  00000-0  00000+0 0  9991
2 55841   0.0319  70.1111 0000849 132.8971 195.9281  1.00272356 11969
Epoch: 2026-06-20T04:34Z
TLE epoch observation values (Epoch: 2026-06-20T04:34:09.728Z)
Latitude
-0.00621°
Longitude
61.99704°
Altitude
35,789.361 km
Speed
3.074 km/s
True Right ascension
02h 35m 47s
True Declination
0° 00' 22"
Sunlit
Object was in daylight at epoch
Visualization orbit readout
Latitude
Unknown
Longitude
Unknown
Altitude
Unknown
Speed
Unknown
Apparent Right ascension
Unknown
Apparent Declination
Unknown
Sunlit
N/A
Visualization observer readout
Local Sidereal Time
21:34:56
Azimuth
Unknown
Elevation
Unknown
Doppler factor
Unknown
Orbital elements
Apogee altitude
35,791.085 km
Perigee altitude
35,783.925 km
Semi-major axis
42,165.642 km
Eccentricity
0.00008
Inclination
0.0319°
RAAN
70.1111°
Arg. of periapsis
132.8971°
True anomaly
195.92543°
Mean anomaly
195.9281°
Eccentric anomaly
195.92677°
Mean motion
0.25067 °/min
Orbital period
1,436.14 mins
BSTAR
0
Loading maneuver chart data...
Computing Atmospheric mass density...
Loading historical data...
Loading historical data...
Loading historical data...
Loading historical data...
Loading historical data...
Loading historical data...
Loading historical data...
Other satellites on launch #31 in the year 2023 (2023-03-12 UTC)

Documentation

Showing up to 5 results
|